When you browse on this site, cookies collect data to enhance your experience and personalize the content and advertising you see.
Visit our Privacy Policy to learn more. By continuing to use the site, you agree to this use of cookies and data.
  • In Hungary
  • List of Countries
  • For 7 days
  • Water Temperature
  • Satellite Maps
  • Weather Map
  • News
  • Weather Widgets
  • user-avatar
    Login

    Hourly Weather Tirana

    Today, 21 March, Thursday

    Time Temperature Precipitation Wind Pressure Humidity
    00:00 +14°C° 0 mm 4 mps 760 mmHg 65%
    01:00 +13°C° 0 mm 4 mps 760 mmHg 65%
    02:00 +13°C° 0 mm 4 mps 760 mmHg 64%
    03:00 +13°C° 0 mm 5 mps 760 mmHg 63%
    04:00 +12°C° 0 mm 5 mps 760 mmHg 62%
    05:00 +13°C° 0 mm 5 mps 760 mmHg 62%
    06:00 +13°C° 0 mm 5 mps 761 mmHg 62%
    07:00 +13°C° 0 mm 5 mps 761 mmHg 61%
    08:00 +15°C° 0 mm 5 mps 761 mmHg 55%
    09:00 +19°C° 0 mm 5 mps 761 mmHg 49%
    10:00 +21°C° 0 mm 4 mps 761 mmHg 43%
    11:00 +21°C° 0 mm 4 mps 761 mmHg 40%
    12:00 +22°C° 0 mm 4 mps 761 mmHg 38%
    13:00 +23°C° 0 mm 4 mps 760 mmHg 35%
    14:00 +22°C° 0 mm 4 mps 760 mmHg 36%
    15:00 +22°C° 0 mm 4 mps 760 mmHg 38%
    16:00 +21°C° 0 mm 4 mps 760 mmHg 39%
    17:00 +20°C° 0 mm 4 mps 760 mmHg 43%
    18:00 +18°C° 0 mm 4 mps 760 mmHg 48%
    19:00 +15°C° 0 mm 4 mps 760 mmHg 53%
    20:00 +14°C° 0 mm 4 mps 761 mmHg 54%
    21:00 +14°C° 0 mm 4 mps 761 mmHg 56%
    22:00 +13°C° 0 mm 4 mps 762 mmHg 57%
    23:00 +13°C° 0 mm 4 mps 762 mmHg 58%

    Tomorrow, 22 March, Friday

    Time Temperature Precipitation Wind Pressure Humidity
    00:00 +12°C° 0 mm 4 mps 762 mmHg 59%
    01:00 +12°C° 0 mm 4 mps 762 mmHg 61%
    02:00 +12°C° 0 mm 3 mps 762 mmHg 61%
    03:00 +11°C° 0 mm 3 mps 762 mmHg 62%
    04:00 +11°C° 0 mm 3 mps 762 mmHg 63%
    05:00 +11°C° 0 mm 3 mps 762 mmHg 63%
    06:00 +12°C° 0 mm 3 mps 762 mmHg 63%
    07:00 +12°C° 0 mm 3 mps 762 mmHg 63%
    08:00 +14°C° 0 mm 3 mps 762 mmHg 55%
    09:00 +17°C° 0 mm 3 mps 762 mmHg 47%
    10:00 +20°C° 0 mm 3 mps 761 mmHg 40%
    11:00 +21°C° 0 mm 3 mps 761 mmHg 37%
    12:00 +21°C° 0 mm 4 mps 761 mmHg 34%
    13:00 +22°C° 0 mm 4 mps 760 mmHg 32%
    14:00 +22°C° 0 mm 5 mps 760 mmHg 34%
    15:00 +22°C° 0 mm 6 mps 759 mmHg 36%
    16:00 +21°C° 0 mm 7 mps 759 mmHg 38%
    17:00 +19°C° 0 mm 6 mps 759 mmHg 45%
    18:00 +16°C° 0 mm 6 mps 759 mmHg 53%
    19:00 +14°C° 0 mm 6 mps 759 mmHg 60%
    20:00 +14°C° 0 mm 5 mps 760 mmHg 57%
    21:00 +14°C° 0 mm 4 mps 760 mmHg 55%
    22:00 +13°C° 0 mm 3 mps 760 mmHg 53%
    23:00 +13°C° 0 mm 3 mps 760 mmHg 53%

    Day after tomorrow, 23 March, Saturday

    Time Temperature Precipitation Wind Pressure Humidity
    00:00 +13°C° 0 mm 3 mps 760 mmHg 52%
    01:00 +12°C° 0 mm 3 mps 760 mmHg 52%
    02:00 +12°C° 0 mm 3 mps 760 mmHg 53%
    03:00 +12°C° 0 mm 3 mps 759 mmHg 53%
    04:00 +12°C° 0 mm 2 mps 759 mmHg 54%
    05:00 +13°C° 0 mm 2 mps 759 mmHg 55%
    06:00 +13°C° 0 mm 2 mps 759 mmHg 56%
    07:00 +14°C° 0 mm 2 mps 759 mmHg 56%
    08:00 +16°C° 0 mm 2 mps 759 mmHg 50%
    09:00 +18°C° 0 mm 2 mps 759 mmHg 43%
    10:00 +20°C° 0 mm 2 mps 759 mmHg 36%
    11:00 +21°C° 0 mm 3 mps 758 mmHg 35%
    12:00 +22°C° 0 mm 3 mps 758 mmHg 34%
    13:00 +23°C° 0 mm 4 mps 758 mmHg 32%
    14:00 +22°C° 0 mm 5 mps 757 mmHg 36%
    15:00 +21°C° 0 mm 6 mps 757 mmHg 40%
    16:00 +21°C° 0 mm 7 mps 757 mmHg 44%
    17:00 +18°C° 0 mm 7 mps 757 mmHg 51%
    18:00 +16°C° 0 mm 6 mps 757 mmHg 58%
    19:00 +14°C° 0 mm 6 mps 757 mmHg 65%
    20:00 +14°C° 0 mm 5 mps 758 mmHg 64%
    21:00 +14°C° 0 mm 4 mps 758 mmHg 63%
    22:00 +13°C° 0 mm 3 mps 758 mmHg 62%
    23:00 +14°C° 0 mm 2 mps 758 mmHg 60%

    24 March, Sunday

    Time Temperature Precipitation Wind Pressure Humidity
    00:00 +14°C° 0 mm 2 mps 758 mmHg 59%
    01:00 +14°C° 0 mm 2 mps 758 mmHg 57%
    02:00 +13°C° 0 mm 2 mps 758 mmHg 57%
    03:00 +13°C° 0 mm 1 mps 758 mmHg 56%
    04:00 +13°C° 0 mm 1 mps 758 mmHg 56%
    05:00 +13°C° 0 mm 1 mps 758 mmHg 56%
    06:00 +14°C° 0 mm 2 mps 758 mmHg 56%
    07:00 +14°C° 0 mm 2 mps 758 mmHg 56%
    08:00 +18°C° 0 mm 1 mps 758 mmHg 50%
    09:00 +20°C° 0 mm 1 mps 758 mmHg 43%
    10:00 +22°C° 0 mm 1 mps 758 mmHg 36%
    11:00 +23°C° 0 mm 2 mps 758 mmHg 35%
    12:00 +22°C° 0 mm 4 mps 758 mmHg 35%
    13:00 +23°C° 0 mm 5 mps 757 mmHg 34%
    14:00 +22°C° 0 mm 5 mps 757 mmHg 38%
    15:00 +21°C° 0 mm 5 mps 757 mmHg 41%
    16:00 +20°C° 0 mm 5 mps 756 mmHg 45%
    17:00 +17°C° 0 mm 5 mps 756 mmHg 54%
    18:00 +15°C° 0 mm 4 mps 757 mmHg 64%
    19:00 +13°C° 0 mm 3 mps 757 mmHg 74%
    20:00 +14°C° 0 mm 2 mps 757 mmHg 74%
    21:00 +13°C° 0 mm 1 mps 757 mmHg 74%
    22:00 +12°C° 0 mm 0 mps 757 mmHg 75%
    23:00 +13°C° 0 mm 1 mps 757 mmHg 75%

    25 March, Monday

    Time Temperature Precipitation Wind Pressure Humidity
    00:00 +13°C° 0 mm 1 mps 757 mmHg 75%
    01:00 +12°C° 0 mm 1 mps 757 mmHg 76%
    02:00 +12°C° 0 mm 1 mps 756 mmHg 76%
    03:00 +12°C° 0 mm 1 mps 756 mmHg 76%
    04:00 +11°C° 0 mm 1 mps 756 mmHg 77%
    05:00 +12°C° 0 mm 1 mps 756 mmHg 74%
    06:00 +13°C° 0 mm 1 mps 756 mmHg 70%
    07:00 +14°C° 0 mm 1 mps 756 mmHg 67%
    08:00 +15°C° 0 mm 1 mps 756 mmHg 62%
    09:00 +18°C° 0 mm 1 mps 756 mmHg 57%
    10:00 +19°C° 0 mm 1 mps 756 mmHg 51%
    11:00 +19°C° 0 mm 2 mps 755 mmHg 51%
    12:00 +19°C° 0 mm 3 mps 755 mmHg 52%
    13:00 +20°C° 0 mm 4 mps 755 mmHg 52%
    14:00 +19°C° 0 mm 4 mps 754 mmHg 55%
    15:00 +19°C° 0 mm 4 mps 754 mmHg 58%
    16:00 +18°C° 0 mm 4 mps 753 mmHg 62%
    17:00 +16°C° 0 mm 3 mps 754 mmHg 70%
    18:00 +15°C° 0 mm 2 mps 754 mmHg 79%
    19:00 +13°C° 0 mm 1 mps 754 mmHg 87%
    20:00 +13°C° 0 mm 1 mps 754 mmHg 87%
    21:00 +12°C° 0 mm 1 mps 754 mmHg 88%
    22:00 +11°C° 0 mm 0 mps 754 mmHg 88%
    23:00 +11°C° 0 mm 0 mps 754 mmHg 87%

    26 March, Tuesday

    Time Temperature Precipitation Wind Pressure Humidity
    00:00 +11°C° 0 mm 0 mps 754 mmHg 86%
    01:00 +11°C° 0 mm 0 mps 754 mmHg 85%
    02:00 +12°C° 0 mm 1 mps 754 mmHg 84%
    03:00 +11°C° 0 mm 1 mps 754 mmHg 83%
    04:00 +11°C° 0 mm 1 mps 754 mmHg 82%
    05:00 +12°C° 0 mm 2 mps 754 mmHg 78%
    06:00 +13°C° 0 mm 2 mps 754 mmHg 74%
    07:00 +12°C° 0 mm 3 mps 754 mmHg 70%
    08:00 +14°C° 0 mm 3 mps 754 mmHg 62%
    09:00 +15°C° 0 mm 4 mps 754 mmHg 54%
    10:00 +17°C° 0 mm 5 mps 754 mmHg 47%
    11:00 +17°C° 0 mm 5 mps 754 mmHg 44%
    12:00 +19°C° 0 mm 5 mps 753 mmHg 41%
    13:00 +19°C° 0 mm 6 mps 753 mmHg 39%
    14:00 +17°C° 0 mm 7 mps 753 mmHg 39%
    15:00 +17°C° 0 mm 8 mps 753 mmHg 38%
    16:00 +16°C° 0 mm 9 mps 752 mmHg 38%
    17:00 +13°C° 0 mm 8 mps 753 mmHg 45%
    18:00 +12°C° 0 mm 7 mps 753 mmHg 51%
    19:00 +10°C° 0 mm 7 mps 754 mmHg 58%
    20:00 +10°C° 0 mm 7 mps 754 mmHg 55%
    21:00 +9°C° 0 mm 7 mps 755 mmHg 53%
    22:00 +9°C° 0 mm 7 mps 755 mmHg 50%
    23:00 +7°C° 0 mm 8 mps 755 mmHg 49%
    Show more